EW8213 Weather Reports


Display with metric or nautical units.
time (UTC)temp
F
wind
direction
speed
MPH
gust
MPH
rain 1hr
in
rain 24hr
in
rain mn
in
humidity
%
barometer
mb
20260505221516 62 135 1.0 4.0 0.00 0.00 0.00 67 1014.4
20260505220516 62 0.0 3.0 0.00 0.00 0.00 68 1014.5
20260505215516 62 0.0 1.0 0.00 0.00 0.00 69 1014.6
20260505214537 62 0.0 1.0 0.00 0.00 0.00 70 1014.6
20260505213516 61 0.0 1.0 0.00 0.00 0.00 72 1014.7
20260505212516 60 0.0 0.0 0.00 0.00 0.00 73 1014.8
20260505211516 60 0.0 1.0 0.00 0.00 0.00 73 1014.9
20260505210516 60 0.0 0.0 0.00 0.00 0.00 73 1014.7
20260505205516 60 0.0 0.0 0.00 0.00 0.00 73 1014.8
20260505204557 60 0.0 0.0 0.00 0.00 0.00 73 1014.8
20260505203516 60 0.0 0.0 0.00 0.00 0.00 74 1014.7
20260505202516 60 0.0 0.0 0.00 0.00 0.00 77 1014.8
20260505201516 59 0.0 0.0 0.00 0.00 0.00 79 1014.9
20260505200536 58 0.0 0.0 0.00 0.00 0.00 79 1015.0
20260505195556 58 0.0 0.0 0.00 0.00 0.00 78 1015.2
20260505194516 58 0.0 0.0 0.00 0.00 0.00 78 1015.2
20260505193516 58 0.0 0.0 0.00 0.00 0.00 78 1015.2
20260505192516 58 0.0 1.0 0.00 0.00 0.00 79 1015.2
20260505191516 58 0.0 0.0 0.00 0.00 0.00 81 1015.2
20260505190516 58 0.0 2.0 0.00 0.00 0.00 82 1015.1
20260505185516 57 0.0 3.0 0.00 0.00 0.00 83 1015.1
20260505184516 57 0.0 1.0 0.00 0.00 0.00 84 1015.0
20260505183556 57 0.0 0.0 0.00 0.00 0.00 85 1015.1
20260505182516 56 0.0 0.0 0.00 0.00 0.00 85 1015.2
20260505181516 56 0.0 0.0 0.00 0.00 0.00 83 1015.2
20260505180516 56 0.0 1.0 0.00 0.00 0.00 82 1015.1
20260505175516 56 0.0 2.0 0.00 0.00 0.00 80 1015.1
20260505174516 57 225 1.0 4.0 0.00 0.00 0.00 79 1014.9
20260505173516 57 0.0 0.0 0.00 0.00 0.00 78 1014.7
20260505172516 56 0.0 0.0 0.00 0.00 0.00 77 1014.6
20260505171516 56 0.0 0.0 0.00 0.00 0.00 77 1014.6
20260505170516 56 0.0 0.0 0.00 0.00 0.00 77 1014.5
20260505165536 56 0.0 0.0 0.00 0.00 0.00 77 1014.5
20260505164516 56 0.0 0.0 0.00 0.00 0.00 78 1014.4
20260505163535 56 0.0 0.0 0.00 0.00 0.00 78 1014.4
20260505162536 56 0.0 0.0 0.00 0.00 0.00 78 1014.3
20260505161515 56 0.0 0.0 0.00 0.00 0.00 79 1014.2
20260505160516 56 0.0 0.0 0.00 0.00 0.00 79 1014.2
20260505152518 55 0.0 0.0 0.00 0.00 0.00 82 1014.1
20260505151517 55 0.0 0.0 0.00 0.00 0.00 82 1014.0
20260505150517 55 0.0 0.0 0.00 0.00 0.00 82 1013.9
20260505140537 54 0.0 0.0 0.00 0.00 0.00 82 1013.6
20260505124537 54 0.0 0.0 0.00 0.00 0.00 80 1013.4
20260505123518 54 0.0 0.0 0.00 0.00 0.00 80 1013.3
20260505122518 54 0.0 0.0 0.00 0.00 0.00 80 1013.5
20260505121517 54 0.0 0.0 0.00 0.00 0.00 80 1013.5
20260505120518 54 0.0 0.0 0.00 0.00 0.00 80 1013.5
20260505115517 54 0.0 0.0 0.00 0.00 0.00 80 1013.6
20260505114517 54 0.0 0.0 0.00 0.00 0.00 79 1013.6
20260505113558 54 0.0 0.0 0.00 0.00 0.00 79 1013.5
20260505112517 54 0.0 0.0 0.00 0.00 0.00 79 1013.7
20260505111517 54 0.0 0.0 0.00 0.00 0.00 79 1013.5
20260505110517 54 0.0 0.0 0.00 0.00 0.00 79 1013.6
20260505101538 54 0.0 0.0 0.00 0.00 0.00 78 1013.6
20260505100517 54 0.0 0.0 0.00 0.00 0.00 78 1013.6
20260505095517 54 0.0 1.0 0.00 0.00 0.00 78 1013.6
20260505094517 54 0.0 1.0 0.00 0.00 0.00 78 1013.6
20260505093517 55 0.0 1.0 0.00 0.00 0.00 77 1013.6
20260505092517 55 0.0 1.0 0.00 0.00 0.00 77 1013.8
20260505091517 55 0.0 1.0 0.00 0.00 0.00 77 1013.8
20260505090517 55 0.0 0.0 0.00 0.00 0.00 77 1013.8
20260505085517 55 0.0 0.0 0.00 0.00 0.00 77 1013.9
20260505084517 55 0.0 6.0 0.00 0.00 0.00 77 1013.9
20260505083517 55 0.0 1.0 0.00 0.00 0.00 77 1014.0
20260505082537 55 0.0 2.0 0.00 0.00 0.00 76 1014.3
20260505081517 55 0.0 2.0 0.00 0.00 0.00 76 1014.3
20260505080517 55 113 1.0 6.0 0.00 0.00 0.00 74 1014.3
20260505075517 55 0.0 2.0 0.00 0.00 0.00 74 1014.4
20260505074517 55 90 1.0 5.0 0.00 0.00 0.00 74 1014.4
20260505073517 56 0.0 4.0 0.00 0.00 0.00 75 1014.2
20260505072517 56 0.0 3.0 0.00 0.00 0.00 75 1014.3
20260505071537 56 0.0 5.0 0.00 0.00 0.00 75 1014.1
20260505070517 56 203 1.0 5.0 0.00 0.00 0.00 75 1014.1
20260505065517 56 0.0 1.0 0.00 0.00 0.00 76 1013.9
20260505064517 56 0.0 1.0 0.00 0.00 0.00 76 1013.9
20260505063517 56 0.0 3.0 0.00 0.00 0.00 76 1013.9
20260505062517 56 0.0 5.0 0.00 0.00 0.00 75 1013.9
20260505061517 56 0.0 2.0 0.00 0.00 0.00 75 1013.8
20260505060517 57 0.0 5.0 0.00 0.00 0.00 75 1013.8
20260505055517 57 0.0 3.0 0.00 0.00 0.00 74 1013.7
20260505054517 57 0.0 2.0 0.00 0.00 0.00 74 1013.8
20260505053517 57 113 2.0 8.0 0.00 0.00 0.00 75 1014.0
20260505052537 57 158 1.0 6.0 0.00 0.00 0.00 75 1014.0
20260505051557 57 0.0 5.0 0.00 0.00 0.00 76 1014.2
20260505050517 57 23 1.0 6.0 0.00 0.00 0.00 76 1014.2
20260505041516 58 203 1.0 5.0 0.00 0.00 0.00 74 1013.6
20260505040538 58 0.0 3.0 0.00 0.00 0.00 73 1013.6
20260505035516 59 135 1.0 7.0 0.00 0.00 0.00 71 1013.5
20260505034517 59 0.0 6.0 0.00 0.00 0.00 68 1013.4
20260505033517 59 203 2.0 7.0 0.00 0.00 0.00 67 1013.2
20260505032516 59 0.0 3.0 0.00 0.00 0.00 69 1013.0
20260505031517 59 158 1.0 6.0 0.00 0.00 0.00 68 1012.9
20260505030537 60 0.0 6.0 0.00 0.00 0.00 66 1012.9
20260505025516 60 0.0 2.0 0.00 0.00 0.00 64 1012.9
20260505024516 60 0.0 2.0 0.00 0.00 0.00 62 1013.0
20260505023517 60 90 1.0 6.0 0.00 0.00 0.00 62 1012.9
20260505022516 60 158 1.0 6.0 0.00 0.00 0.00 64 1012.9
20260505021516 60 135 1.0 7.0 0.00 0.00 0.00 62 1012.8
20260505020516 61 225 1.0 8.0 0.00 0.00 0.00 61 1012.9
20260505015517 61 135 1.0 8.0 0.00 0.00 0.00 60 1012.7
20260505014517 61 158 1.0 9.0 0.00 0.00 0.00 59 1012.7
20260505013517 62 135 1.0 9.0 0.00 0.00 0.00 59 1012.8
20260505012517 62 113 2.0 13.0 0.00 0.00 0.00 58 1012.9
20260505011517 63 135 1.0 14.0 0.00 0.00 0.00 58 1013.1
20260505010516 63 180 2.0 9.0 0.00 0.00 0.00 58 1013.1
20260505005516 63 135 1.0 6.0 0.00 0.00 0.00 59 1013.0
20260505004517 62 113 1.0 7.0 0.00 0.00 0.00 59 1013.2
20260505003517 62 158 2.0 9.0 0.00 0.00 0.00 60 1013.3
20260505002516 62 203 1.0 11.0 0.00 0.00 0.00 60 1013.3
20260505001516 62 203 2.0 9.0 0.00 0.00 0.00 60 1013.2
20260505000516 62 158 2.0 9.0 0.00 0.00 0.00 60 1013.1
20260504235516 62 158 2.0 11.0 0.00 0.00 0.00 60 1013.1
20260504234516 63 158 3.0 12.0 0.00 0.00 0.00 59 1013.1
20260504233516 64 113 2.0 11.0 0.00 0.00 0.00 57 1013.0
20260504232516 65 113 2.0 12.0 0.00 0.00 0.00 57 1013.0
20260504231516 65 180 2.0 10.0 0.00 0.00 0.00 57 1012.9
20260504230536 64 158 2.0 10.0 0.00 0.00 0.00 58 1012.9
20260504225516 65 68 1.0 9.0 0.00 0.00 0.00 57 1012.9
20260504224516 65 158 1.0 8.0 0.00 0.00 0.00 57 1013.0
20260504223516 65 203 1.0 8.0 0.00 0.00 0.00 57 1013.0
20260504222516 65 203 2.0 8.0 0.00 0.00 0.00 56 1013.1